Regional Weather Roundup
Issued by NWS

Home | Current Version | Previous Version | Text Only | Print | Product List | Glossary Off
Versions: 1 2 3 4 5 6 7 8 9 10 11 12 13 14 15 16 17 18 19 20 21 22 23 24 25 26 27 28 29 30 31 32 33 34 35 36 37 38 39 40 41 42 43 44 45 46 47 48 49 50

000
ASUS43 KMKX 042200
RWRWI

WISCONSIN REGIONAL WEATHER ROUNDUP
NATIONAL WEATHER SERVICE MILWAUKEE/SULLIVAN WI
500 PM CDT SAT JUL 04 2015

NOTE: "FAIR" INDICATES FEW OR NO CLOUDS BELOW 12,000 FEET WITH NO
SIGNIFICANT WEATHER AND/OR OBSTRUCTIONS TO VISIBILITY.

WIZ001-002-006>008-014>016-023>028-042300-
NORTHWEST WISCONSIN

CITY           SKY/WX    TMP DP  RH WIND       PRES   REMARKS
SUPERIOR ARPT  SUNNY     67  59  77 E7        29.94S
ASHLAND        SUNNY     72  63  73 N9        29.94F
HAYWARD        SUNNY     81  58  45 S7        29.94F HX  81
SIREN          MOSUNNY   84  58  41 S6        29.93S HX  83
CUMBERLAND     SUNNY     81  57  44 SW6       29.95S HX  81
RICE LAKE      SUNNY     82  60  46 S7        29.95F HAZE    HX  82
CHETEK         NOT AVBL
LADYSMITH      MOSUNNY   82  59  45 S5        29.97S HX  82
EAU CLAIRE     NOT AVBL
MENOMONIE      SUNNY     83  64  52 S5        29.94S HAZE    HX  84
NEW RICHMOND   SUNNY     81  64  56 SW7       29.94S HAZE    HX  82
OSCEOLA        SUNNY     83  64  53 S9        29.95F HAZE    HX  84
$$

WIZ003>005-009-010-017-018-042300-
NORTH CENTRAL WISCONSIN

CITY           SKY/WX    TMP DP  RH WIND       PRES   REMARKS
MANITOWISH WTR PTSUNNY   78  58  51 CALM      29.98S
ARBOR VITAE    PTSUNNY   77  56  47 CALM      29.99S
WOODRUFF       PTSUNNY   77  56  47 CALM      29.99S
RHINELANDER    PTSUNNY   80  53  39 NW5       29.99S HX  80
EAGLE RIVER    PTSUNNY   79  50  36 W6        29.98F
LAND O LAKES   PTSUNNY   78  54  43 CALM      29.99F
PHILLIPS       MOSUNNY   81  58  45 S6        29.96S HX  81
TOMAHAWK       MOSUNNY   79  55  42 CALM      29.98S
MEDFORD        SUNNY     80  60  51 S5        29.97F HX  81
MERRILL        MOSUNNY   81  57  43 SW6       29.98S HX  81
$$

WIZ029-030-035-036-043>047-042300-
CENTRAL WISCONSIN

CITY           SKY/WX    TMP DP  RH WIND       PRES   REMARKS
WAUSAU         MOSUNNY   82  55  39 SW8       29.96R HAZE    HX  81
MOSINEE        NOT AVBL
MARSHFIELD     MOSUNNY   82  62  50 S6        29.96F HAZE    HX  83
STEVENS POINT  MOSUNNY   80  59  48 W5        29.97S HX  81
WAUPACA        PTSUNNY   83  62  49 SE6       29.96S HX  84
WAUTOMA        NOT AVBL
WISC RAPIDS    SUNNY     82  61  48 SW8       29.97F HX  83
CAMP DOUGLAS   NOT AVBL
$$

WIZ011>013-019>022-031-037>040-048>050-042300-
NORTHEAST WISCONSIN

CITY           SKY/WX    TMP DP  RH WIND       PRES   REMARKS
ANTIGO         PTSUNNY   77  63  61 S6        29.99S
SHAWANO        PTSUNNY   81  62  51 E5        29.96F HX  82
OCONTO         MOSUNNY   77  64  65 E8        29.97F
STURGEON BAY   MOSUNNY   72  59  64 SE7       30.01S
GREEN BAY      MOSUNNY   80  66  62 E8        29.97S HX  82
MANITOWOC      NOT AVBL
APPLETON       PTSUNNY   79  61  53 SW7       29.98S HX  80
CLINTONVILLE   PTSUNNY   82  55  39 CALM      29.96S HX  82
OSHKOSH        MOSUNNY   81  64  56 S6        29.97S HX  82
$$

WIZ032>034-041-042-053>061-042300-
SOUTHWEST WISCONSIN

CITY           SKY/WX    TMP DP  RH WIND       PRES   REMARKS
LA CROSSE      MOSUNNY   83  63  50 SW13      29.95S HX  84
SPARTA         MOSUNNY   81  60  50 W3        29.97S HX  81
VIROQUA        SUNNY     80  61  53 SW8       30.00S HX  81
BOSCOBEL       SUNNY     83  61  47 W6        29.98S HX  83
PRAIRIE DU CHI SUNNY     80  59  48 SW7       29.97S HX  81
PLATTEVILLE    SUNNY     80  58  46 W9        30.00S HX  80
$$

WIZ056-057-062-063-064-067-068-042300-
SOUTH CENTRAL WISCONSIN

CITY           SKY/WX    TMP DP  RH WIND       PRES   REMARKS
REEDSBURG      SUNNY     80  63  55 SW8       29.97F HX  81
BARABOO/DELLS  SUNNY     81  59  46 SW5       29.98S HX  81
LONE ROCK      NOT AVBL
MINERAL POINT  SUNNY     81  55  41 SW5       30.01S HX  80
MADISON        MOSUNNY   81  60  48 W6        29.98S HX  82
MIDDLETON      PTSUNNY   81  59  46 SW8       29.99F HX  81
WATERTOWN      PTSUNNY   78  63  58 SW5       29.98S HX  80
MONROE         MOSUNNY   79  59  50 SW8       30.00S HX  80
JANESVILLE     PTSUNNY   81  61  50 SW7       29.99S HX  81
$$

WIZ051-052-058>065-066-070>072-042300-
SOUTHEAST WISCONSIN

CITY           SKY/WX    TMP DP  RH WIND       PRES   REMARKS
MILWAUKEE      MOSUNNY   77  61  57 SE12      29.98S
WAUKESHA       PTSUNNY   79  61  53 SW6       30.00S HX  80
MILWAUKEE/TIMM PTSUNNY   81  55  41 W5        29.99R HX  80
RACINE         SUNNY     76  56  49 S12       30.01S
BURLINGTON     SUNNY     78  58  50 W5        29.99S
KENOSHA        SUNNY     79  60  52 S9        29.99S HX  80
FOND DU LAC    SUNNY     82  63  52 SW6       29.98S HX  83
SHEBOYGAN      PTSUNNY   77  62  59 SE8       29.98S
WEST BEND      CLOUDY    79  59  50 SW5       29.98S HX  80
JUNEAU         MOSUNNY   78  62  58 SW8       30.00S HX  80
$$

LSZ147-162-042300-
LAKE SUPERIOR

STATION/POSITION TIME  TEMP    WIND        PRES    WAVE
                       AIR SEA DIR/SP/G            HT/PER
                 (UTC) (F)     (DEG/KT/KT) (MB)    (FT/S)
W MID LAKE BUOY  2050   42 39   60/  8/  8 1015.4F   0
DEVILS ISLAND    2100   58      80/  9/ 10 1014.8F
SAXON HARBOR     2140   65        CALM     1013.9F
$$

LMZ867-665-643>646-042300-
LAKE MICHIGAN

STATION/POSITION TIME  TEMP    WIND        PRES    WAVE
                       AIR SEA DIR/SP/G            HT/PER
                 (UTC) (F)     (DEG/KT/KT) (MB)    (FT/S)
CHAMBERS ISLAND  2100   72      80/  5/  7 1015.2F
S GREEN BAY BUOY 2100   70 70   60/ 10/ 14 1016.3F
N MID LAKE BUOY  2050   60 53  200/  4/  4 1015.6F   0
NORTHPORT PIER   2100   64     140/  6/  7 1015.2F
SISTER BAY       2014   79     130/  9/ 11   N/A
ALGOMA LAKESHORE 2011           70/  8/  9   N/A
KEWAUNEE LAKESHO 2100   63      40/  4/  6 1015.1R
SHEBOYGAN LAKESH 2100   64     160/ 11/ 11 1015.5R
PORT WASHINGTON  2140   70     190/  4/  8 1015.9S
ATWATER BUOY     2100   65 62  150/ 10/ 12 1016.5F
MILWAUKEE LAKESH 2100   65     140/ 14/ 15   N/A
KENOSHA   LAKESH 2100   67     180/ 10/ 13 1015.2F
$$

TC  - TEMPERATURE IN CELSIUS
VSB - VISIBILITY IN STATUTE MILES
WCI - WIND CHILL INDEX
HX  - HEAT INDEX




USA.gov is the U.S. government's official web portal to all federal, state and local government web resources and services.